| time (UTC) | temp F | wind direction | speed MPH | gust MPH | rain 1hr in | rain 24hr in | rain mn in | humidity % | barometer mb |
| 20260831022014 | 92 | 307 | 0.0 | 5.0 | 0.00 | 0.00 | 0.00 | 35 | 1007.1 |
| 20260831021514 | 92 | 317 | 0.0 | 5.0 | 0.00 | 0.00 | 0.00 | 34 | 1007.1 |
| 20260831021014 | 92 | 319 | 1.0 | 4.0 | 0.00 | 0.00 | 0.00 | 34 | 1007.0 |
| 20260831020515 | 92 | 296 | 0.0 | 3.0 | 0.00 | 0.00 | 0.00 | 34 | 1007.0 |
| 20260831020014 | 93 | 285 | 0.0 | 5.0 | 0.00 | 0.00 | 0.00 | 33 | 1007.0 |
| 20260831015514 | 93 | 268 | 1.0 | 5.0 | 0.00 | 0.00 | 0.00 | 33 | 1006.9 |
| 20260831015014 | 93 | 334 | 0.0 | 5.0 | 0.00 | 0.00 | 0.00 | 33 | 1006.9 |
| 20260831014734 | 93 | 302 | 1.0 | 5.0 | 0.00 | 0.00 | 0.00 | 33 | 1006.9 |
| 20260831014237 | 93 | 286 | 1.0 | 4.0 | 0.00 | 0.00 | 0.00 | 33 | 1006.9 |
| 20260831013513 | 93 | 317 | 0.0 | 4.0 | 0.00 | 0.00 | 0.00 | 33 | 1006.6 |
| 20260831013242 | 94 | 293 | 0.0 | 5.0 | 0.00 | 0.00 | 0.00 | 32 | 1006.6 |
| 20260831012513 | 94 | 278 | 0.0 | 9.0 | 0.00 | 0.00 | 0.00 | 32 | 1006.5 |
| 20260831012013 | 94 | 0 | 2.0 | 9.0 | 0.00 | 0.00 | 0.00 | 32 | 1006.6 |
| 20260831011513 | 94 | 290 | 1.0 | 4.0 | 0.00 | 0.00 | 0.00 | 32 | 1006.6 |
| 20260831011016 | 94 | 288 | 0.0 | 6.0 | 0.00 | 0.00 | 0.00 | 32 | 1006.5 |
| 20260831010512 | 95 | 330 | 1.0 | 7.0 | 0.00 | 0.00 | 0.00 | 31 | 1006.6 |
| 20260831010009 | 95 | 300 | 2.0 | 7.0 | 0.00 | 0.00 | 0.00 | 31 | 1006.5 |
| 20260831005729 | 96 | 264 | 2.0 | 6.0 | 0.00 | 0.00 | 0.00 | 30 | 1006.5 |
| 20260831005448 | 96 | 290 | 2.0 | 6.0 | 0.00 | 0.00 | 0.00 | 30 | 1006.5 |
| 20260831004512 | 97 | 314 | 0.0 | 5.0 | 0.00 | 0.00 | 0.00 | 30 | 1006.5 |
| 20260831004235 | 97 | 302 | 2.0 | 6.0 | 0.00 | 0.00 | 0.00 | 30 | 1006.5 |
| 20260831003512 | 97 | 343 | 0.0 | 6.0 | 0.00 | 0.00 | 0.00 | 30 | 1006.6 |
| 20260831003012 | 97 | 18 | 1.0 | 9.0 | 0.00 | 0.00 | 0.00 | 29 | 1006.6 |
| 20260831002509 | 97 | 307 | 4.0 | 9.0 | 0.00 | 0.00 | 0.00 | 29 | 1006.5 |
| 20260831002008 | 97 | 276 | 1.0 | 9.0 | 0.00 | 0.00 | 0.00 | 29 | 1006.6 |
| 20260831001508 | 97 | 255 | 3.0 | 9.0 | 0.00 | 0.00 | 0.00 | 29 | 1006.6 |
| 20260831001011 | 98 | 300 | 2.0 | 10.0 | 0.00 | 0.00 | 0.00 | 29 | 1006.6 |
| 20260831000512 | 98 | 258 | 3.0 | 10.0 | 0.00 | 0.00 | 0.00 | 29 | 1006.6 |
| 20260831000011 | 98 | 278 | 4.0 | 10.0 | 0.00 | 0.00 | 0.00 | 29 | 1006.5 |
| 20260830235511 | 98 | 266 | 2.0 | 7.0 | 0.00 | 0.00 | 0.00 | 29 | 1006.5 |
| 20260830235231 | 99 | 295 | 1.0 | 7.0 | 0.00 | 0.00 | 0.00 | 28 | 1006.5 |
| 20260830234511 | 98 | 245 | 2.0 | 7.0 | 0.00 | 0.00 | 0.00 | 29 | 1006.5 |
| 20260830234011 | 98 | 226 | 0.0 | 9.0 | 0.00 | 0.00 | 0.00 | 30 | 1006.5 |
| 20260830233510 | 98 | 244 | 3.0 | 9.0 | 0.00 | 0.00 | 0.00 | 29 | 1006.6 |
| 20260830233007 | 98 | 303 | 2.0 | 7.0 | 0.00 | 0.00 | 0.00 | 28 | 1006.6 |
| 20260830232510 | 99 | 300 | 2.0 | 7.0 | 0.00 | 0.00 | 0.00 | 28 | 1006.8 |
| 20260830232232 | 99 | 226 | 2.0 | 10.0 | 0.00 | 0.00 | 0.00 | 28 | 1006.8 |
| 20260830231510 | 99 | 213 | 3.0 | 10.0 | 0.00 | 0.00 | 0.00 | 29 | 1006.9 |
| 20260830231010 | 99 | 250 | 1.0 | 6.0 | 0.00 | 0.00 | 0.00 | 28 | 1007.0 |
| 20260830230510 | 98 | 217 | 3.0 | 9.0 | 0.00 | 0.00 | 0.00 | 28 | 1007.1 |
| 20260830230010 | 98 | 220 | 2.0 | 9.0 | 0.00 | 0.00 | 0.00 | 29 | 1007.1 |
| 20260830225506 | 97 | 268 | 2.0 | 7.0 | 0.00 | 0.00 | 0.00 | 30 | 1007.2 |
| 20260830225006 | 97 | 275 | 2.0 | 10.0 | 0.00 | 0.00 | 0.00 | 30 | 1007.3 |
| 20260830224506 | 98 | 312 | 6.0 | 11.0 | 0.00 | 0.00 | 0.00 | 29 | 1007.4 |
| 20260830224233 | 98 | 286 | 5.0 | 11.0 | 0.00 | 0.00 | 0.00 | 29 | 1007.4 |
| 20260830223731 | 97 | 224 | 2.0 | 10.0 | 0.00 | 0.00 | 0.00 | 30 | 1007.5 |
| 20260830223009 | 97 | 312 | 1.0 | 9.0 | 0.00 | 0.00 | 0.00 | 29 | 1007.7 |
| 20260830222509 | 97 | 281 | 1.0 | 9.0 | 0.00 | 0.00 | 0.00 | 30 | 1007.8 |
| 20260830222005 | 97 | 254 | 1.0 | 10.0 | 0.00 | 0.00 | 0.00 | 29 | 1007.7 |
| 20260830221505 | 97 | 264 | 2.0 | 10.0 | 0.00 | 0.00 | 0.00 | 30 | 1007.8 |
| 20260830221005 | 97 | 234 | 3.0 | 12.0 | 0.00 | 0.00 | 0.00 | 30 | 1007.9 |
| 20260830220505 | 97 | 307 | 3.0 | 12.0 | 0.00 | 0.00 | 0.00 | 30 | 1008.1 |
| 20260830220230 | 98 | 259 | 1.0 | 12.0 | 0.00 | 0.00 | 0.00 | 29 | 1008.1 |
| 20260830215508 | 98 | 38 | 0.0 | 12.0 | 0.00 | 0.00 | 0.00 | 29 | 1008.2 |
| 20260830215008 | 98 | 286 | 3.0 | 10.0 | 0.00 | 0.00 | 0.00 | 30 | 1008.3 |
| 20260830214509 | 98 | 281 | 1.0 | 9.0 | 0.00 | 0.00 | 0.00 | 30 | 1008.4 |
| 20260830214008 | 97 | 279 | 1.0 | 12.0 | 0.00 | 0.00 | 0.00 | 30 | 1008.4 |
| 20260830213503 | 97 | 358 | 3.0 | 12.0 | 0.00 | 0.00 | 0.00 | 30 | 1008.5 |
| 20260830213004 | 98 | 296 | 4.0 | 11.0 | 0.00 | 0.00 | 0.00 | 29 | 1008.6 |
| 20260830212504 | 99 | 306 | 6.0 | 11.0 | 0.00 | 0.00 | 0.00 | 29 | 1008.7 |
| 20260830212005 | 100 | 276 | 1.0 | 11.0 | 0.00 | 0.00 | 0.00 | 28 | 1008.7 |
| 20260830211507 | 99 | 230 | 4.0 | 10.0 | 0.00 | 0.00 | 0.00 | 28 | 1008.8 |
| 20260830211007 | 100 | 17 | 1.0 | 7.0 | 0.00 | 0.00 | 0.00 | 28 | 1008.9 |
| 20260830210735 | 100 | 295 | 0.0 | 9.0 | 0.00 | 0.00 | 0.00 | 27 | 1009.0 |
| 20260830210226 | 100 | 182 | 2.0 | 12.0 | 0.00 | 0.00 | 0.00 | 27 | 1009.1 |
| 20260830205506 | 100 | 240 | 0.0 | 12.0 | 0.00 | 0.00 | 0.00 | 28 | 1009.2 |
| 20260830205232 | 100 | 234 | 0.0 | 5.0 | 0.00 | 0.00 | 0.00 | 28 | 1009.4 |
| 20260830204507 | 100 | 357 | 1.0 | 5.0 | 0.00 | 0.00 | 0.00 | 29 | 1009.5 |
| 20260830204007 | 99 | 224 | 0.0 | 5.0 | 0.00 | 0.00 | 0.00 | 30 | 1009.6 |
| 20260830203506 | 98 | 266 | 1.0 | 10.0 | 0.00 | 0.00 | 0.00 | 30 | 1009.8 |
| 20260830203006 | 98 | 299 | 4.0 | 10.0 | 0.00 | 0.00 | 0.00 | 30 | 1009.8 |
| 20260830202506 | 98 | 152 | 3.0 | 9.0 | 0.00 | 0.00 | 0.00 | 30 | 1009.9 |
| 20260830202005 | 98 | 78 | 0.0 | 11.0 | 0.00 | 0.00 | 0.00 | 30 | 1009.9 |
| 20260830201728 | 98 | 220 | 3.0 | 13.0 | 0.00 | 0.00 | 0.00 | 30 | 1010.1 |
| 20260830201006 | 98 | 243 | 3.0 | 13.0 | 0.00 | 0.00 | 0.00 | 30 | 1010.2 |
| 20260830200732 | 99 | 244 | 3.0 | 9.0 | 0.00 | 0.00 | 0.00 | 30 | 1010.2 |
| 20260830200005 | 99 | 203 | 1.0 | 7.0 | 0.00 | 0.00 | 0.00 | 29 | 1010.2 |
| 20260830195502 | 99 | 202 | 4.0 | 10.0 | 0.00 | 0.00 | 0.00 | 30 | 1010.2 |
| 20260830195006 | 98 | 251 | 0.0 | 10.0 | 0.00 | 0.00 | 0.00 | 30 | 1010.3 |
| 20260830194505 | 98 | 202 | 0.0 | 7.0 | 0.00 | 0.00 | 0.00 | 31 | 1010.3 |
| 20260830194005 | 97 | 210 | 2.0 | 7.0 | 0.00 | 0.00 | 0.00 | 31 | 1010.5 |
| 20260830193505 | 98 | 305 | 2.0 | 7.0 | 0.00 | 0.00 | 0.00 | 31 | 1010.5 |
| 20260830193005 | 97 | 254 | 1.0 | 3.0 | 0.00 | 0.00 | 0.00 | 32 | 1010.7 |
| 20260830192505 | 96 | 102 | 0.0 | 9.0 | 0.00 | 0.00 | 0.00 | 32 | 1010.8 |
| 20260830192001 | 97 | 120 | 0.0 | 11.0 | 0.00 | 0.00 | 0.00 | 31 | 1011.0 |
| 20260830191501 | 97 | 179 | 2.0 | 11.0 | 0.00 | 0.00 | 0.00 | 31 | 1011.0 |
| 20260830191001 | 97 | 219 | 3.0 | 9.0 | 0.00 | 0.00 | 0.00 | 32 | 1011.0 |
| 20260830190504 | 97 | 149 | 3.0 | 7.0 | 0.00 | 0.00 | 0.00 | 32 | 1011.1 |
| 20260830190004 | 96 | 173 | 2.0 | 5.0 | 0.00 | 0.00 | 0.00 | 33 | 1011.2 |
| 20260830185504 | 95 | 165 | 0.0 | 10.0 | 0.00 | 0.00 | 0.00 | 33 | 1011.2 |
| 20260830185005 | 95 | 140 | 2.0 | 10.0 | 0.00 | 0.00 | 0.00 | 34 | 1011.2 |
| 20260830184503 | 95 | 220 | 1.0 | 10.0 | 0.00 | 0.00 | 0.00 | 33 | 1011.3 |
| 20260830184003 | 96 | 158 | 4.0 | 10.0 | 0.00 | 0.00 | 0.00 | 33 | 1011.3 |
| 20260830183504 | 95 | 161 | 2.0 | 10.0 | 0.00 | 0.00 | 0.00 | 34 | 1011.4 |
| 20260830183004 | 95 | 180 | 2.0 | 13.0 | 0.00 | 0.00 | 0.00 | 35 | 1011.5 |
| 20260830182500 | 95 | 271 | 4.0 | 13.0 | 0.00 | 0.00 | 0.00 | 34 | 1011.6 |
| 20260830182004 | 95 | 223 | 3.0 | 7.0 | 0.00 | 0.00 | 0.00 | 33 | 1011.6 |
| 20260830181503 | 95 | 100 | 2.0 | 5.0 | 0.00 | 0.00 | 0.00 | 34 | 1011.7 |
| 20260830181446 | 95 | 149 | 1.0 | 6.0 | 0.00 | 0.00 | 0.00 | 34 | 1011.8 |
| 20260830180727 | 94 | 168 | 1.0 | 6.0 | 0.00 | 0.00 | 0.00 | 35 | 1011.8 |
| 20260830180005 | 94 | 182 | 0.0 | 6.0 | 0.00 | 0.00 | 0.00 | 35 | 1012.0 |
| 20260830175722 | 95 | 203 | 1.0 | 6.0 | 0.00 | 0.00 | 0.00 | 35 | 1012.0 |
| 20260830174958 | 94 | 123 | 0.0 | 11.0 | 0.00 | 0.00 | 0.00 | 36 | 1012.0 |
| 20260830174459 | 94 | 213 | 4.0 | 11.0 | 0.00 | 0.00 | 0.00 | 36 | 1012.0 |
| 20260830174002 | 94 | 164 | 1.0 | 7.0 | 0.00 | 0.00 | 0.00 | 36 | 1012.0 |
| 20260830173727 | 94 | 149 | 3.0 | 7.0 | 0.00 | 0.00 | 0.00 | 36 | 1012.0 |
| 20260830173002 | 93 | 199 | 1.0 | 5.0 | 0.00 | 0.00 | 0.00 | 38 | 1012.1 |
| 20260830172721 | 92 | 257 | 1.0 | 6.0 | 0.00 | 0.00 | 0.00 | 38 | 1012.1 |
| 20260830172002 | 92 | 159 | 2.0 | 6.0 | 0.00 | 0.00 | 0.00 | 38 | 1012.2 |
| 20260830171502 | 92 | 157 | 0.0 | 6.0 | 0.00 | 0.00 | 0.00 | 39 | 1012.2 |
| 20260830171001 | 92 | 223 | 3.0 | 6.0 | 0.00 | 0.00 | 0.00 | 38 | 1012.2 |
| 20260830170502 | 92 | 259 | 1.0 | 6.0 | 0.00 | 0.00 | 0.00 | 39 | 1012.2 |
| 20260830170002 | 92 | 133 | 1.0 | 6.0 | 0.00 | 0.00 | 0.00 | 40 | 1012.2 |
| 20260830165502 | 91 | 223 | 0.0 | 0.0 | 0.00 | 0.00 | 0.00 | 40 | 1012.1 |
| 20260830165001 | 91 | 244 | 0.0 | 0.0 | 0.00 | 0.00 | 0.00 | 40 | 1012.2 |
| 20260830164501 | 90 | 140 | 0.0 | 0.0 | 0.00 | 0.00 | 0.00 | 41 | 1012.2 |
| 20260830164000 | 90 | 141 | 0.0 | 0.0 | 0.00 | 0.00 | 0.00 | 40 | 1012.2 |
| 20260830163501 | 89 | 212 | 0.0 | 0.0 | 0.00 | 0.00 | 0.00 | 41 | 1012.2 |
| 20260830163221 | 89 | 285 | 0.0 | 1.0 | 0.00 | 0.00 | 0.00 | 40 | 1012.4 |
| 20260830162724 | 90 | 245 | 0.0 | 1.0 | 0.00 | 0.00 | 0.00 | 42 | 1012.4 |
| 20260830162446 | 89 | 276 | 0.0 | 3.0 | 0.00 | 0.00 | 0.00 | 42 | 1012.4 |
| 20260830161500 | 89 | 276 | 1.0 | 3.0 | 0.00 | 0.00 | 0.00 | 41 | 1012.4 |
| 20260830161000 | 90 | 237 | 0.0 | 3.0 | 0.00 | 0.00 | 0.00 | 41 | 1012.4 |
| 20260830160500 | 90 | 223 | 0.0 | 3.0 | 0.00 | 0.00 | 0.00 | 42 | 1012.5 |
| 20260830160223 | 90 | 148 | 1.0 | 2.0 | 0.00 | 0.00 | 0.00 | 42 | 1012.4 |
| 20260830155500 | 89 | 157 | 0.0 | 0.0 | 0.00 | 0.00 | 0.00 | 42 | 1012.5 |
| 20260830155000 | 89 | 279 | 0.0 | 0.0 | 0.00 | 0.00 | 0.00 | 43 | 1012.5 |
| 20260830154722 | 88 | 171 | 0.0 | 0.0 | 0.00 | 0.00 | 0.00 | 43 | 1012.4 |
| 20260830153957 | 87 | 226 | 0.0 | 3.0 | 0.00 | 0.00 | 0.00 | 44 | 1012.4 |
| 20260830153715 | 87 | 210 | 0.0 | 3.0 | 0.00 | 0.00 | 0.00 | 44 | 1012.4 |
| 20260830153000 | 87 | 0 | 0.0 | 1.0 | 0.00 | 0.00 | 0.00 | 44 | 1012.4 |
| 20260830152459 | 87 | 0 | 0.0 | 1.0 | 0.00 | 0.00 | 0.00 | 46 | 1012.3 |
| 20260830151959 | 86 | 6 | 0.0 | 0.0 | 0.00 | 0.00 | 0.00 | 48 | 1012.3 |
| 20260830151459 | 85 | 354 | 0.0 | 0.0 | 0.00 | 0.00 | 0.00 | 50 | 1012.3 |
| 20260830150959 | 84 | 354 | 0.0 | 0.0 | 0.00 | 0.00 | 0.00 | 50 | 1012.2 |
| 20260830150459 | 84 | 354 | 0.0 | 0.0 | 0.00 | 0.00 | 0.00 | 54 | 1012.3 |
| 20260830145958 | 83 | 354 | 0.0 | 0.0 | 0.00 | 0.00 | 0.00 | 54 | 1012.3 |
| 20260830145458 | 82 | 354 | 0.0 | 0.0 | 0.00 | 0.00 | 0.00 | 57 | 1012.2 |
| 20260830144955 | 81 | 354 | 0.0 | 0.0 | 0.00 | 0.00 | 0.00 | 58 | 1012.3 |
| 20260830144725 | 80 | 354 | 0.0 | 0.0 | 0.00 | 0.00 | 0.00 | 60 | 1012.3 |
| 20260830144217 | 80 | 354 | 0.0 | 0.0 | 0.00 | 0.00 | 0.00 | 62 | 1012.4 |
| 20260830143459 | 80 | 354 | 0.0 | 0.0 | 0.00 | 0.00 | 0.00 | 60 | 1012.2 |
| 20260830143437 | 79 | 354 | 0.0 | 1.0 | 0.00 | 0.00 | 0.00 | 61 | 1012.3 |
| 20260830142458 | 80 | 357 | 0.0 | 1.0 | 0.00 | 0.00 | 0.00 | 63 | 1012.4 |
| 20260830141957 | 80 | 93 | 0.0 | 0.0 | 0.00 | 0.00 | 0.00 | 63 | 1012.4 |
| 20260830141457 | 80 | 93 | 0.0 | 0.0 | 0.00 | 0.00 | 0.00 | 60 | 1012.4 |
| 20260830141435 | 79 | 93 | 0.0 | 0.0 | 0.00 | 0.00 | 0.00 | 60 | 1012.4 |
| 20260830140458 | 80 | 93 | 0.0 | 0.0 | 0.00 | 0.00 | 0.00 | 60 | 1012.5 |
| 20260830135957 | 80 | 93 | 0.0 | 0.0 | 0.00 | 0.00 | 0.00 | 58 | 1012.5 |
| 20260830135719 | 80 | 93 | 0.0 | 0.0 | 0.00 | 0.00 | 0.00 | 57 | 1012.5 |
| 20260830134958 | 80 | 93 | 0.0 | 0.0 | 0.00 | 0.00 | 0.00 | 57 | 1012.5 |
| 20260830134457 | 80 | 93 | 0.0 | 0.0 | 0.00 | 0.00 | 0.00 | 57 | 1012.5 |
| 20260830133957 | 80 | 157 | 0.0 | 0.0 | 0.00 | 0.00 | 0.00 | 57 | 1012.5 |
| 20260830133457 | 79 | 157 | 0.0 | 0.0 | 0.00 | 0.00 | 0.00 | 57 | 1012.5 |
| 20260830132957 | 79 | 175 | 0.0 | 0.0 | 0.00 | 0.00 | 0.00 | 56 | 1012.5 |
| 20260830132712 | 79 | 175 | 0.0 | 0.0 | 0.00 | 0.00 | 0.00 | 56 | 1012.5 |
| 20260830131957 | 79 | 175 | 0.0 | 0.0 | 0.00 | 0.00 | 0.00 | 57 | 1012.4 |
| 20260830131456 | 79 | 175 | 0.0 | 0.0 | 0.00 | 0.00 | 0.00 | 57 | 1012.4 |
| 20260830130956 | 79 | 175 | 0.0 | 0.0 | 0.00 | 0.00 | 0.00 | 57 | 1012.3 |
| 20260830130456 | 80 | 175 | 0.0 | 0.0 | 0.00 | 0.00 | 0.00 | 55 | 1012.3 |
| 20260830125956 | 80 | 175 | 0.0 | 0.0 | 0.00 | 0.00 | 0.00 | 53 | 1012.3 |
| 20260830125456 | 81 | 175 | 0.0 | 1.0 | 0.00 | 0.00 | 0.00 | 52 | 1012.4 |
| 20260830124956 | 81 | 176 | 0.0 | 1.0 | 0.00 | 0.00 | 0.00 | 52 | 1012.4 |
| 20260830124455 | 81 | 178 | 0.0 | 0.0 | 0.00 | 0.00 | 0.00 | 51 | 1012.3 |
| 20260830123955 | 81 | 148 | 0.0 | 0.0 | 0.00 | 0.00 | 0.00 | 51 | 1012.3 |
| 20260830123455 | 81 | 154 | 0.0 | 4.0 | 0.00 | 0.00 | 0.00 | 50 | 1012.1 |
| 20260830122955 | 82 | 155 | 0.0 | 4.0 | 0.00 | 0.00 | 0.00 | 49 | 1011.7 |
| 20260830122455 | 81 | 157 | 0.0 | 3.0 | 0.00 | 0.00 | 0.00 | 50 | 1011.8 |
| 20260830121955 | 81 | 145 | 0.0 | 1.0 | 0.00 | 0.00 | 0.00 | 51 | 1012.0 |
| 20260830121455 | 80 | 62 | 0.0 | 0.0 | 0.00 | 0.00 | 0.00 | 51 | 1012.1 |
| 20260830120955 | 80 | 62 | 0.0 | 0.0 | 0.00 | 0.00 | 0.00 | 51 | 1012.2 |
| 20260830120455 | 80 | 62 | 0.0 | 0.0 | 0.00 | 0.00 | 0.00 | 51 | 1012.2 |
| 20260830115954 | 80 | 340 | 0.0 | 0.0 | 0.00 | 0.00 | 0.00 | 51 | 1012.1 |
| 20260830115454 | 81 | 65 | 0.0 | 0.0 | 0.00 | 0.00 | 0.00 | 50 | 1012.0 |
| 20260830114954 | 81 | 65 | 0.0 | 0.0 | 0.00 | 0.00 | 0.00 | 49 | 1011.6 |
| 20260830114454 | 82 | 65 | 0.0 | 0.0 | 0.00 | 0.00 | 0.00 | 47 | 1011.5 |
| 20260830113954 | 82 | 65 | 0.0 | 7.0 | 0.00 | 0.00 | 0.00 | 48 | 1011.5 |
| 20260830113715 | 82 | 331 | 1.0 | 7.0 | 0.00 | 0.00 | 0.00 | 47 | 1011.5 |
| 20260830113213 | 82 | 51 | 0.0 | 1.0 | 0.00 | 0.00 | 0.00 | 49 | 1011.4 |
| 20260830112453 | 82 | 38 | 0.0 | 3.0 | 0.00 | 0.00 | 0.00 | 49 | 1011.2 |
| 20260830111953 | 82 | 82 | 0.0 | 3.0 | 0.00 | 0.00 | 0.00 | 48 | 1011.3 |
| 20260830111717 | 81 | 39 | 0.0 | 0.0 | 0.00 | 0.00 | 0.00 | 50 | 1011.4 |
| 20260830110953 | 81 | 39 | 0.0 | 0.0 | 0.00 | 0.00 | 0.00 | 51 | 1011.5 |
| 20260830110453 | 81 | 38 | 0.0 | 1.0 | 0.00 | 0.00 | 0.00 | 51 | 1011.5 |
| 20260830105953 | 81 | 44 | 0.0 | 1.0 | 0.00 | 0.00 | 0.00 | 51 | 1011.5 |
| 20260830105711 | 81 | 75 | 0.0 | 0.0 | 0.00 | 0.00 | 0.00 | 52 | 1011.5 |
| 20260830104952 | 80 | 161 | 0.0 | 0.0 | 0.00 | 0.00 | 0.00 | 53 | 1011.4 |
| 20260830104452 | 81 | 161 | 0.0 | 0.0 | 0.00 | 0.00 | 0.00 | 53 | 1011.4 |
| 20260830104212 | 81 | 161 | 0.0 | 0.0 | 0.00 | 0.00 | 0.00 | 52 | 1011.3 |
| 20260830103452 | 82 | 161 | 0.0 | 2.0 | 0.00 | 0.00 | 0.00 | 51 | 1011.2 |
| 20260830102952 | 82 | 161 | 0.0 | 2.0 | 0.00 | 0.00 | 0.00 | 49 | 1011.1 |
| 20260830102452 | 82 | 154 | 0.0 | 2.0 | 0.00 | 0.00 | 0.00 | 49 | 1011.0 |
| 20260830101952 | 82 | 193 | 0.0 | 0.0 | 0.00 | 0.00 | 0.00 | 50 | 1010.9 |
| 20260830101452 | 82 | 171 | 0.0 | 0.0 | 0.00 | 0.00 | 0.00 | 50 | 1010.7 |
| 20260830100952 | 82 | 96 | 0.0 | 0.0 | 0.00 | 0.00 | 0.00 | 50 | 1010.7 |
| 20260830100452 | 81 | 86 | 0.0 | 0.0 | 0.00 | 0.00 | 0.00 | 51 | 1010.7 |
| 20260830095952 | 81 | 155 | 0.0 | 0.0 | 0.00 | 0.00 | 0.00 | 53 | 1010.8 |
| 20260830095452 | 81 | 164 | 0.0 | 0.0 | 0.00 | 0.00 | 0.00 | 53 | 1010.7 |
| 20260830094951 | 81 | 164 | 0.0 | 0.0 | 0.00 | 0.00 | 0.00 | 53 | 1010.5 |
| 20260830094451 | 81 | 288 | 0.0 | 0.0 | 0.00 | 0.00 | 0.00 | 54 | 1010.5 |
| 20260830093951 | 81 | 288 | 0.0 | 0.0 | 0.00 | 0.00 | 0.00 | 54 | 1010.5 |
| 20260830093451 | 81 | 288 | 0.0 | 0.0 | 0.00 | 0.00 | 0.00 | 53 | 1010.4 |
| 20260830092951 | 81 | 288 | 0.0 | 0.0 | 0.00 | 0.00 | 0.00 | 52 | 1010.3 |
| 20260830092451 | 82 | 288 | 0.0 | 0.0 | 0.00 | 0.00 | 0.00 | 51 | 1010.4 |
| 20260830092212 | 82 | 288 | 0.0 | 0.0 | 0.00 | 0.00 | 0.00 | 52 | 1010.3 |
| 20260830091451 | 82 | 288 | 0.0 | 0.0 | 0.00 | 0.00 | 0.00 | 50 | 1010.3 |
| 20260830091217 | 82 | 288 | 0.0 | 0.0 | 0.00 | 0.00 | 0.00 | 50 | 1010.2 |
| 20260830090452 | 82 | 288 | 0.0 | 3.0 | 0.00 | 0.00 | 0.00 | 50 | 1010.1 |
| 20260830085950 | 82 | 288 | 0.0 | 4.0 | 0.00 | 0.00 | 0.00 | 50 | 1010.0 |
| 20260830085450 | 82 | 58 | 0.0 | 4.0 | 0.00 | 0.00 | 0.00 | 50 | 1010.0 |
| 20260830084950 | 82 | 303 | 1.0 | 5.0 | 0.00 | 0.00 | 0.00 | 50 | 1010.1 |
| 20260830084449 | 83 | 310 | 0.0 | 5.0 | 0.00 | 0.00 | 0.00 | 49 | 1010.0 |
| 20260830083950 | 83 | 288 | 0.0 | 6.0 | 0.00 | 0.00 | 0.00 | 49 | 1010.0 |
| 20260830083450 | 83 | 324 | 2.0 | 9.0 | 0.00 | 0.00 | 0.00 | 48 | 1010.0 |
| 20260830082950 | 83 | 292 | 1.0 | 9.0 | 0.00 | 0.00 | 0.00 | 47 | 1009.9 |
| 20260830082449 | 83 | 300 | 3.0 | 10.0 | 0.00 | 0.00 | 0.00 | 47 | 1010.0 |
| 20260830081949 | 83 | 300 | 5.0 | 10.0 | 0.00 | 0.00 | 0.00 | 46 | 1009.8 |
| 20260830081711 | 84 | 302 | 2.0 | 9.0 | 0.00 | 0.00 | 0.00 | 46 | 1009.7 |
| 20260830080950 | 84 | 307 | 1.0 | 11.0 | 0.00 | 0.00 | 0.00 | 46 | 1009.6 |
| 20260830080719 | 84 | 259 | 3.0 | 11.0 | 0.00 | 0.00 | 0.00 | 45 | 1009.5 |
| 20260830075949 | 84 | 257 | 6.0 | 11.0 | 0.00 | 0.00 | 0.00 | 45 | 1009.5 |
| 20260830075449 | 84 | 258 | 1.0 | 7.0 | 0.00 | 0.00 | 0.00 | 45 | 1009.6 |
| 20260830075211 | 84 | 271 | 3.0 | 7.0 | 0.00 | 0.00 | 0.00 | 45 | 1009.6 |
| 20260830074936 | 84 | 266 | 0.0 | 11.0 | 0.00 | 0.00 | 0.00 | 46 | 1009.6 |
| 20260830073948 | 83 | 316 | 2.0 | 11.0 | 0.00 | 0.00 | 0.00 | 47 | 1009.5 |
| 20260830073712 | 83 | 258 | 2.0 | 5.0 | 0.00 | 0.00 | 0.00 | 49 | 1009.6 |
| 20260830072949 | 83 | 295 | 0.0 | 0.0 | 0.00 | 0.00 | 0.00 | 49 | 1009.2 |
| 20260830072448 | 83 | 295 | 0.0 | 0.0 | 0.00 | 0.00 | 0.00 | 49 | 1009.1 |
| 20260830071948 | 83 | 154 | 0.0 | 0.0 | 0.00 | 0.00 | 0.00 | 46 | 1009.1 |
| 20260830071448 | 83 | 149 | 0.0 | 0.0 | 0.00 | 0.00 | 0.00 | 47 | 1009.0 |
| 20260830070948 | 83 | 114 | 0.0 | 0.0 | 0.00 | 0.00 | 0.00 | 48 | 1009.1 |
| 20260830070708 | 83 | 4 | 0.0 | 0.0 | 0.00 | 0.00 | 0.00 | 49 | 1009.1 |
| 20260830065947 | 83 | 4 | 0.0 | 0.0 | 0.00 | 0.00 | 0.00 | 48 | 1009.2 |
| 20260830065447 | 83 | 4 | 0.0 | 0.0 | 0.00 | 0.00 | 0.00 | 46 | 1009.2 |
| 20260830064948 | 84 | 54 | 0.0 | 0.0 | 0.00 | 0.00 | 0.00 | 45 | 1009.4 |
| 20260830064448 | 84 | 125 | 0.0 | 4.0 | 0.00 | 0.00 | 0.00 | 44 | 1009.4 |
| 20260830063947 | 84 | 109 | 0.0 | 5.0 | 0.00 | 0.00 | 0.00 | 44 | 1009.5 |
| 20260830063447 | 84 | 148 | 1.0 | 5.0 | 0.00 | 0.00 | 0.00 | 44 | 1009.5 |
| 20260830062947 | 84 | 145 | 1.0 | 7.0 | 0.00 | 0.00 | 0.00 | 44 | 1009.5 |
| 20260830062446 | 84 | 152 | 2.0 | 7.0 | 0.00 | 0.00 | 0.00 | 44 | 1009.6 |
| 20260830061946 | 84 | 152 | 0.0 | 6.0 | 0.00 | 0.00 | 0.00 | 44 | 1009.5 |
| 20260830061446 | 84 | 114 | 0.0 | 3.0 | 0.00 | 0.00 | 0.00 | 43 | 1009.5 |
| 20260830060947 | 84 | 103 | 0.0 | 3.0 | 0.00 | 0.00 | 0.00 | 44 | 1009.5 |
| 20260830060447 | 84 | 86 | 0.0 | 3.0 | 0.00 | 0.00 | 0.00 | 43 | 1009.7 |
| 20260830055946 | 84 | 78 | 0.0 | 3.0 | 0.00 | 0.00 | 0.00 | 43 | 1010.0 |
| 20260830055446 | 84 | 80 | 0.0 | 1.0 | 0.00 | 0.00 | 0.00 | 44 | 1009.9 |
| 20260830054946 | 85 | 110 | 0.0 | 1.0 | 0.00 | 0.00 | 0.00 | 44 | 1010.0 |
| 20260830054447 | 85 | 261 | 0.0 | 0.0 | 0.00 | 0.00 | 0.00 | 43 | 1010.2 |
| 20260830053946 | 85 | 261 | 0.0 | 0.0 | 0.00 | 0.00 | 0.00 | 44 | 1010.2 |
| 20260830053445 | 85 | 261 | 0.0 | 0.0 | 0.00 | 0.00 | 0.00 | 40 | 1010.2 |
| 20260830052946 | 85 | 169 | 0.0 | 0.0 | 0.00 | 0.00 | 0.00 | 41 | 1010.4 |
| 20260830052446 | 86 | 169 | 0.0 | 0.0 | 0.00 | 0.00 | 0.00 | 42 | 1010.5 |
| 20260830051945 | 86 | 82 | 0.0 | 0.0 | 0.00 | 0.00 | 0.00 | 43 | 1010.5 |
| 20260830051445 | 86 | 296 | 0.0 | 0.0 | 0.00 | 0.00 | 0.00 | 42 | 1010.7 |
| 20260830050945 | 86 | 296 | 0.0 | 0.0 | 0.00 | 0.00 | 0.00 | 42 | 1010.7 |
| 20260830050705 | 86 | 296 | 0.0 | 4.0 | 0.00 | 0.00 | 0.00 | 42 | 1010.7 |
| 20260830045945 | 87 | 289 | 0.0 | 5.0 | 0.00 | 0.00 | 0.00 | 41 | 1010.7 |
| 20260830045444 | 86 | 307 | 1.0 | 11.0 | 0.00 | 0.00 | 0.00 | 41 | 1010.9 |
| 20260830044945 | 86 | 268 | 3.0 | 11.0 | 0.00 | 0.00 | 0.00 | 41 | 1011.1 |
| 20260830044445 | 86 | 282 | 3.0 | 14.0 | 0.00 | 0.00 | 0.00 | 42 | 1011.1 |
| 20260830044211 | 86 | 293 | 6.0 | 14.0 | 0.00 | 0.00 | 0.00 | 42 | 1011.2 |
| 20260830043444 | 86 | 276 | 5.0 | 13.0 | 0.00 | 0.00 | 0.00 | 41 | 1011.2 |
| 20260830042944 | 86 | 326 | 5.0 | 13.0 | 0.00 | 0.00 | 0.00 | 41 | 1011.3 |
| 20260830042444 | 87 | 171 | 3.0 | 12.0 | 0.00 | 0.00 | 0.00 | 42 | 1011.3 |
| 20260830041945 | 87 | 271 | 2.0 | 11.0 | 0.00 | 0.00 | 0.00 | 41 | 1011.3 |
| 20260830041705 | 87 | 274 | 3.0 | 11.0 | 0.00 | 0.00 | 0.00 | 41 | 1011.4 |
| 20260830040945 | 87 | 226 | 1.0 | 10.0 | 0.00 | 0.00 | 0.00 | 41 | 1011.6 |
| 20260830040924 | 87 | 303 | 3.0 | 9.0 | 0.00 | 0.00 | 0.00 | 41 | 1011.4 |
| 20260830035943 | 87 | 245 | 2.0 | 6.0 | 0.00 | 0.00 | 0.00 | 41 | 1011.4 |
| 20260830035443 | 87 | 265 | 1.0 | 5.0 | 0.00 | 0.00 | 0.00 | 42 | 1011.3 |
| 20260830034943 | 87 | 279 | 0.0 | 4.0 | 0.00 | 0.00 | 0.00 | 43 | 1011.2 |
| 20260830034444 | 87 | 247 | 0.0 | 1.0 | 0.00 | 0.00 | 0.00 | 44 | 1011.1 |
| 20260830033943 | 87 | 282 | 0.0 | 1.0 | 0.00 | 0.00 | 0.00 | 43 | 1011.0 |
| 20260830033443 | 87 | 272 | 0.0 | 9.0 | 0.00 | 0.00 | 0.00 | 43 | 1011.0 |
| 20260830033204 | 87 | 286 | 0.0 | 9.0 | 0.00 | 0.00 | 0.00 | 43 | 1011.0 |
| 20260830032443 | 87 | 255 | 1.0 | 7.0 | 0.00 | 0.00 | 0.00 | 43 | 1010.8 |
| 20260830031943 | 87 | 255 | 3.0 | 10.0 | 0.00 | 0.00 | 0.00 | 43 | 1010.8 |
| 20260830031442 | 87 | 283 | 2.0 | 10.0 | 0.00 | 0.00 | 0.00 | 44 | 1010.4 |
| 20260830030942 | 87 | 293 | 0.0 | 1.0 | 0.00 | 0.00 | 0.00 | 44 | 1010.2 |
| 20260830030442 | 87 | 292 | 0.0 | 1.0 | 0.00 | 0.00 | 0.00 | 44 | 1010.1 |
| 20260830025942 | 87 | 235 | 0.0 | 1.0 | 0.00 | 0.00 | 0.00 | 43 | 1010.0 |
| 20260830025442 | 87 | 220 | 0.0 | 1.0 | 0.00 | 0.00 | 0.00 | 43 | 1009.9 |
| 20260830024941 | 87 | 235 | 0.0 | 1.0 | 0.00 | 0.00 | 0.00 | 43 | 1009.9 |
| 20260830024441 | 87 | 226 | 0.0 | 0.0 | 0.00 | 0.00 | 0.00 | 42 | 1009.7 |
| 20260830023941 | 87 | 351 | 0.0 | 0.0 | 0.00 | 0.00 | 0.00 | 42 | 1009.6 |
| 20260830023441 | 87 | 353 | 0.0 | 0.0 | 0.00 | 0.00 | 0.00 | 42 | 1009.6 |
| 20260830022942 | 87 | 353 | 0.0 | 0.0 | 0.00 | 0.00 | 0.00 | 41 | 1009.4 |
| 20260830022710 | 87 | 353 | 0.0 | 0.0 | 0.00 | 0.00 | 0.00 | 43 | 1009.1 |